Flag for Germany Weather past 2 weeks in Warburg, North Rhine-Westphalia, Germany

Now
69 °F

Overcast.


Feels Like: 69 °F
Forecast: 51 / 65 °F
Wind: 6 mph from West

Location: Bad Lippspringe

Current Time: Sep 1, 2015 at 4:10:24 AM

Latest Report: Sep 1, 2015 at 3:00 AM


Visibility: 11 mi

Pressure: 29.80 "Hg

Humidity: 81%

Dew point: 63 °F

Location of WarburgLocation

Historic Weather in Warburg — Graph

°F

Warburg temperature yesterday

Maximum temperature yesterday: 90 °F (at 4:00 PM)
Minimum temperature yesterday: 67 °F (at 3:00 AM)
Average temperature yesterday: 78 °F

Past Weeks' High & Low Weather Summary

 TemperatureHumidityPressure
High90 °F (Aug 31, 4:00 PM)100% (Aug 17, 4:00 AM)30.27 "Hg (Aug 17, 4:00 AM)
Low49 °F (Aug 29, 6:00 AM)27% (Aug 31, 4:00 PM)29.59 "Hg (Aug 24, 6:00 PM)
Average66 °F72%29.99 "Hg
* Reported Aug 17 3:00 AM — Sep 1 3:00 AM, Warburg, Weather by CustomWeather, © 2015

Note: Actual official high and low records may vary slightly from our data, if they occured in-between our weather recording intervals... More about our weather records

Advertising

Warburg weather history for previous 24 hours

 ConditionsComfort  
Time TempWeatherWind HumidityBarometerVisibility
3:00 AM
Tue, Sep 1
69 °FOvercast.6 mph81%29.80 "Hg11 mi
2:00 AM69 °FPassing clouds.5 mph84%29.80 "Hg9 mi
1:00 AM69 °FPassing clouds.1 mph84%29.80 "Hg7 mi
11:00 PM
Mon, Aug 31
72 °FPassing clouds.2 mph62%29.78 "Hg17 mi
10:00 PM73 °FClear.2 mph59%29.75 "Hg17 mi
9:00 PM74 °FClear.1 mph63%29.76 "Hg18 mi
8:00 PM82 °FSunny.2 mph43%29.74 "Hg19 mi
7:00 PM87 °FSunny.6 mph33%29.74 "Hg11 mi
6:00 PM89 °FSunny.5 mph37%29.74 "Hg14 mi
5:00 PM90 °FSunny.5 mph33%29.75 "Hg9 mi
4:00 PM90 °FSunny.7 mph27%29.76 "Hg11 mi
3:00 PM90 °FSunny.7 mph32%29.78 "Hg7 mi
2:00 PM89 °FPassing clouds.5 mph37%29.80 "Hg11 mi
1:00 PM87 °FSunny.3 mph49%29.82 "Hg16 mi
12:00 PM85 °FScattered clouds.5 mph55%29.85 "Hg14 mi
11:00 AM81 °FSunny.5 mph62%29.87 "Hg10 mi
10:00 AM78 °FSunny.6 mph70%29.88 "Hg7 mi
9:00 AM76 °FSunny.1 mph77%29.90 "Hg11 mi
8:00 AM70 °FOvercast.1 mph89%29.93 "Hg7 mi
7:00 AM71 °FSunny.3 mph79%29.92 "Hg15 mi
5:00 AM70 °FFog.2 mph95%29.96 "Hg3 mi
4:00 AM68 °FOvercast.1 mph95%29.98 "Hg6 mi
Weather by CustomWeather, © 2015

See weather overviewHow to use our weather pages